Time,TemperatureF,DewpointF,PressureIn,WindDirection,WindDirectionDegrees,WindSpeedMPH,WindSpeedGustMPH,Humidity,HourlyPrecipIn,Conditions,Clouds,dailyrainin,SolarRadiationWatts/m^2,SoftwareType,DateUTC
2013-06-14 00:01:00,68.0,65.0,30.10,ENE,76,0.0,-999.0,89,-99.99,,,-99.99,0.000000,,2013-06-14 10:01:00,
2013-06-14 00:11:00,68.0,65.0,30.10,ENE,76,0.0,-999.0,89,-99.99,,,-99.99,0.000000,,2013-06-14 10:11:00,
2013-06-14 00:22:00,69.0,66.0,30.10,East,83,0.0,-999.0,90,-99.99,,,-99.99,0.000000,,2013-06-14 10:22:00,
2013-06-14 00:33:00,69.0,66.0,30.09,East,85,0.0,-999.0,89,-99.99,,,-99.99,0.000000,,2013-06-14 10:33:00,
2013-06-14 00:43:00,69.0,66.0,30.09,East,85,0.0,-999.0,89,-99.99,,,-99.99,0.000000,,2013-06-14 10:43:00,
2013-06-14 00:52:00,69.0,66.0,30.09,ENE,73,0.0,-999.0,89,-99.99,,,-99.99,0.000000,,2013-06-14 10:52:00,
2013-06-14 01:01:00,69.0,66.0,30.09,ENE,73,0.0,-999.0,89,-99.99,,,-99.99,0.000000,,2013-06-14 11:01:00,
2013-06-14 01:11:00,69.0,66.0,30.09,ENE,73,0.0,-999.0,89,-99.99,,,-99.99,0.000000,,2013-06-14 11:11:00,
2013-06-14 01:22:00,70.0,67.0,30.08,East,90,0.0,-999.0,89,-99.99,,,-99.99,0.000000,,2013-06-14 11:22:00,
2013-06-14 01:32:00,70.0,67.0,30.08,East,90,0.0,-999.0,89,-99.99,,,-99.99,0.000000,,2013-06-14 11:32:00,
2013-06-14 01:43:00,69.0,66.0,30.08,East,90,0.0,-999.0,89,-99.99,,,-99.99,0.000000,,2013-06-14 11:43:00,
2013-06-14 01:52:00,69.0,66.0,30.07,East,93,1.0,-999.0,89,-99.99,,,-99.99,0.000000,,2013-06-14 11:52:00,
2013-06-14 02:01:00,70.0,66.0,30.06,East,97,1.0,-999.0,88,-99.99,,,-99.99,0.000000,,2013-06-14 12:01:00,
2013-06-14 02:11:00,70.0,66.0,30.06,East,97,1.0,-999.0,88,-99.99,,,-99.99,0.000000,,2013-06-14 12:11:00,
2013-06-14 02:22:00,69.0,65.0,30.06,East,90,0.0,-999.0,88,-99.99,,,-99.99,0.000000,,2013-06-14 12:22:00,
2013-06-14 02:32:00,69.0,65.0,30.06,East,90,0.0,-999.0,88,-99.99,,,-99.99,0.000000,,2013-06-14 12:32:00,
2013-06-14 02:43:00,69.0,65.0,30.06,East,90,0.0,-999.0,88,-99.99,,,-99.99,0.000000,,2013-06-14 12:43:00,
2013-06-14 02:52:00,69.0,65.0,30.05,ENE,75,0.0,-999.0,88,-99.99,,,-99.99,0.000000,,2013-06-14 12:52:00,
2013-06-14 03:01:00,69.0,65.0,30.05,ENE,75,0.0,-999.0,88,-99.99,,,-99.99,0.000000,,2013-06-14 13:01:00,
2013-06-14 03:11:00,68.0,65.0,30.05,East,92,1.0,-999.0,89,-99.99,,,-99.99,0.000000,,2013-06-14 13:11:00,
2013-06-14 03:22:00,68.0,65.0,30.05,ENE,76,1.0,-999.0,90,-99.99,,,-99.99,0.000000,,2013-06-14 13:22:00,
2013-06-14 03:33:00,68.0,65.0,30.05,ENE,76,1.0,-999.0,90,-99.99,,,-99.99,0.000000,,2013-06-14 13:33:00,
2013-06-14 03:43:00,68.0,65.0,30.05,ENE,76,0.0,-999.0,89,-99.99,,,-99.99,0.000000,,2013-06-14 13:43:00,
2013-06-14 03:53:00,67.0,64.0,30.05,ENE,76,0.0,-999.0,90,-99.99,,,-99.99,0.000000,,2013-06-14 13:53:00,
2013-06-14 04:02:00,67.0,64.0,30.05,ENE,74,0.0,-999.0,90,-99.99,,,-99.99,0.000000,,2013-06-14 14:02:00,
2013-06-14 04:11:00,67.0,64.0,30.05,ENE,74,0.0,-999.0,90,-99.99,,,-99.99,0.000000,,2013-06-14 14:11:00,
2013-06-14 04:22:00,67.0,64.0,30.05,East,83,0.0,-999.0,90,-99.99,,,-99.99,0.000000,,2013-06-14 14:22:00,
2013-06-14 04:33:00,67.0,64.0,30.05,East,83,0.0,-999.0,90,-99.99,,,-99.99,0.000000,,2013-06-14 14:33:00,
2013-06-14 04:43:00,67.0,63.0,30.04,ENE,71,1.0,-999.0,88,-99.99,,,-99.99,0.000000,,2013-06-14 14:43:00,
2013-06-14 04:52:00,66.0,63.0,30.04,ENE,73,0.0,-999.0,89,-99.99,,,-99.99,0.000000,,2013-06-14 14:52:00,
2013-06-14 05:01:00,66.0,63.0,30.04,ENE,73,0.0,-999.0,89,-99.99,,,-99.99,0.000000,,2013-06-14 15:01:00,
2013-06-14 05:11:00,66.0,63.0,30.04,ENE,73,0.0,-999.0,90,-99.99,,,-99.99,0.000000,,2013-06-14 15:11:00,
2013-06-14 05:22:00,66.0,63.0,30.05,NE,51,1.0,-999.0,90,-99.99,,,-99.99,0.000000,,2013-06-14 15:22:00,
2013-06-14 05:33:00,66.0,63.0,30.05,NE,51,1.0,-999.0,91,-99.99,,,-99.99,0.000000,,2013-06-14 15:33:00,
2013-06-14 05:43:00,66.0,63.0,30.05,NE,51,1.0,-999.0,91,-99.99,,,-99.99,0.000000,,2013-06-14 15:43:00,
2013-06-14 05:53:00,65.0,62.0,30.05,NE,53,1.0,-999.0,91,-99.99,,,-99.99,0.000000,,2013-06-14 15:53:00,
2013-06-14 06:01:00,65.0,62.0,30.05,NE,53,1.0,-999.0,91,-99.99,,,-99.99,0.000000,,2013-06-14 16:01:00,
2013-06-14 06:11:00,66.0,63.0,30.06,NE,55,0.0,-999.0,90,-99.99,,,-99.99,5.000000,,2013-06-14 16:11:00,
2013-06-14 06:22:00,66.0,63.0,30.06,NE,55,0.0,-999.0,90,-99.99,,,-99.99,18.000000,,2013-06-14 16:22:00,
2013-06-14 06:32:00,65.0,63.0,30.07,NE,55,0.0,-999.0,92,-99.99,,,-99.99,26.000000,,2013-06-14 16:32:00,
2013-06-14 06:43:00,65.0,63.0,30.07,NE,55,0.0,-999.0,92,-99.99,,,-99.99,26.000000,,2013-06-14 16:43:00,
2013-06-14 06:53:00,66.0,64.0,30.08,NE,55,0.0,-999.0,92,-99.99,,,-99.99,42.000000,,2013-06-14 16:53:00,
2013-06-14 07:02:00,66.0,64.0,30.08,NE,55,0.0,-999.0,92,-99.99,,,-99.99,42.000000,,2013-06-14 17:02:00,
2013-06-14 07:11:00,67.0,64.0,30.08,East,95,0.0,-999.0,91,-99.99,,,-99.99,137.000000,,2013-06-14 17:11:00,
2013-06-14 07:22:00,69.0,66.0,30.08,East,95,0.0,-999.0,89,-99.99,,,-99.99,220.000000,,2013-06-14 17:22:00,
2013-06-14 07:34:00,71.0,66.0,30.08,East,95,0.0,-999.0,85,-99.99,,,-99.99,255.000000,,2013-06-14 17:34:00,
2013-06-14 07:43:00,71.0,66.0,30.08,East,95,0.0,-999.0,85,-99.99,,,-99.99,255.000000,,2013-06-14 17:43:00,
2013-06-14 07:53:00,73.0,68.0,30.09,East,95,0.0,-999.0,83,-99.99,,,-99.99,160.000000,,2013-06-14 17:53:00,
2013-06-14 08:02:00,73.0,68.0,30.09,East,95,0.0,-999.0,83,-99.99,,,-99.99,160.000000,,2013-06-14 18:02:00,
2013-06-14 08:11:00,73.0,67.0,30.08,East,95,0.0,-999.0,82,-99.99,,,-99.99,367.000000,,2013-06-14 18:11:00,
2013-06-14 08:21:00,73.0,67.0,30.09,South,178,1.0,-999.0,82,-99.99,,,-99.99,394.000000,,2013-06-14 18:21:00,
2013-06-14 08:32:00,74.0,68.0,30.08,SW,219,1.0,-999.0,82,-99.99,,,-99.99,454.000000,,2013-06-14 18:32:00,
2013-06-14 08:42:00,74.0,68.0,30.08,SW,219,1.0,-999.0,82,-99.99,,,-99.99,454.000000,,2013-06-14 18:42:00,
2013-06-14 08:52:00,74.0,68.0,30.08,SW,217,1.0,-999.0,81,-99.99,,,-99.99,496.000000,,2013-06-14 18:52:00,
2013-06-14 09:01:00,74.0,68.0,30.08,SW,217,1.0,-999.0,81,-99.99,,,-99.99,496.000000,,2013-06-14 19:01:00,
2013-06-14 09:11:00,75.0,68.0,30.09,SSW,203,2.0,-999.0,79,-99.99,,,-99.99,526.000000,,2013-06-14 19:11:00,
2013-06-14 09:21:00,75.0,68.0,30.08,SSW,196,2.0,-999.0,80,-99.99,,,-99.99,615.000000,,2013-06-14 19:21:00,
2013-06-14 09:32:00,75.0,68.0,30.08,SSW,196,2.0,-999.0,80,-99.99,,,-99.99,615.000000,,2013-06-14 19:32:00,
2013-06-14 09:42:00,75.0,69.0,30.08,SW,219,2.0,-999.0,82,-99.99,,,-99.99,278.000000,,2013-06-14 19:42:00,
2013-06-14 09:53:00,75.0,68.0,30.08,SSW,192,3.0,-999.0,80,-99.99,,,-99.99,276.000000,,2013-06-14 19:53:00,
2013-06-14 10:01:00,75.0,68.0,30.08,SSW,192,3.0,-999.0,80,-99.99,,,-99.99,276.000000,,2013-06-14 20:01:00,
2013-06-14 10:11:00,75.0,68.0,30.08,SW,234,2.0,-999.0,80,-99.99,,,-99.99,355.000000,,2013-06-14 20:11:00,
2013-06-14 10:22:00,75.0,69.0,30.08,West,263,2.0,-999.0,81,-99.99,,,-99.99,441.000000,,2013-06-14 20:22:00,
2013-06-14 10:33:00,75.0,69.0,30.08,SSW,211,2.0,-999.0,83,-99.99,,,-99.99,258.000000,,2013-06-14 20:33:00,
2013-06-14 10:43:00,75.0,69.0,30.08,SSW,211,2.0,-999.0,83,-99.99,,,-99.99,258.000000,,2013-06-14 20:43:00,
2013-06-14 10:53:00,75.0,69.0,30.08,SSE,167,3.0,-999.0,82,-99.99,,,-99.99,230.000000,,2013-06-14 20:53:00,
2013-06-14 11:01:00,75.0,69.0,30.08,SSW,210,2.0,-999.0,83,-99.99,,,-99.99,255.000000,,2013-06-14 21:01:00,
2013-06-14 11:11:00,75.0,69.0,30.08,SSW,210,2.0,-999.0,83,-99.99,,,-99.99,255.000000,,2013-06-14 21:11:00,
2013-06-14 11:22:00,74.0,68.0,30.08,SSW,196,3.0,-999.0,83,-99.99,,,-99.99,274.000000,,2013-06-14 21:22:00,
2013-06-14 11:33:00,74.0,68.0,30.08,SSW,196,3.0,-999.0,83,-99.99,,,-99.99,274.000000,,2013-06-14 21:33:00,
2013-06-14 11:42:00,74.0,68.0,30.08,South,188,3.0,-999.0,83,-99.99,,,-99.99,258.000000,,2013-06-14 21:42:00,
2013-06-14 11:52:00,74.0,68.0,30.08,SSW,213,2.0,-999.0,83,-99.99,,,-99.99,236.000000,,2013-06-14 21:52:00,
2013-06-14 12:01:00,75.0,69.0,30.07,SSE,167,2.0,-999.0,83,-99.99,,,-99.99,378.000000,,2013-06-14 22:01:00,
2013-06-14 12:11:00,75.0,69.0,30.07,SSE,167,2.0,-999.0,83,-99.99,,,-99.99,378.000000,,2013-06-14 22:11:00,
2013-06-14 12:22:00,75.0,69.0,30.07,South,186,2.0,-999.0,83,-99.99,,,-99.99,446.000000,,2013-06-14 22:22:00,
2013-06-14 12:33:00,76.0,70.0,30.06,SSW,203,2.0,-999.0,81,-99.99,,,-99.99,,,2013-06-14 22:33:00,
2013-06-14 12:43:00,76.0,70.0,30.06,SSW,203,2.0,-999.0,81,-99.99,,,-99.99,,,2013-06-14 22:43:00,
2013-06-14 12:53:00,76.0,69.0,30.06,South,179,4.0,-999.0,79,-99.99,,,-99.99,552.000000,,2013-06-14 22:53:00,
2013-06-14 13:01:00,76.0,69.0,30.05,SW,236,2.0,-999.0,80,-99.99,,,-99.99,251.000000,,2013-06-14 23:01:00,
2013-06-14 13:11:00,76.0,69.0,30.05,SW,236,2.0,-999.0,80,-99.99,,,-99.99,251.000000,,2013-06-14 23:11:00,
2013-06-14 13:22:00,76.0,69.0,30.05,SSW,196,4.0,-999.0,80,-99.99,,,-99.99,336.000000,,2013-06-14 23:22:00,
2013-06-14 13:32:00,76.0,69.0,30.05,SSW,196,4.0,-999.0,80,-99.99,,,-99.99,336.000000,,2013-06-14 23:32:00,
2013-06-14 13:43:00,76.0,69.0,30.05,SW,219,3.0,-999.0,79,-99.99,,,-99.99,369.000000,,2013-06-14 23:43:00,
2013-06-14 13:52:00,75.0,68.0,30.05,SSW,213,4.0,-999.0,79,-99.99,,,-99.99,183.000000,,2013-06-14 23:52:00,
2013-06-14 14:01:00,75.0,68.0,30.05,SSW,213,4.0,-999.0,79,-99.99,,,-99.99,183.000000,,2013-06-15 00:01:00,
2013-06-14 14:11:00,75.0,69.0,30.05,SSW,200,3.0,-999.0,81,-99.99,,,-99.99,197.000000,,2013-06-15 00:11:00,
2013-06-14 14:22:00,75.0,68.0,30.04,SSE,166,2.0,-999.0,80,-99.99,,,-99.99,336.000000,,2013-06-15 00:22:00,
2013-06-14 14:33:00,75.0,68.0,30.04,South,184,2.0,-999.0,80,-99.99,,,-99.99,236.000000,,2013-06-15 00:33:00,
2013-06-14 14:43:00,75.0,68.0,30.04,South,184,2.0,-999.0,80,-99.99,,,-99.99,236.000000,,2013-06-15 00:43:00,
2013-06-14 14:53:00,75.0,70.0,30.03,ESE,114,1.0,-999.0,84,-99.99,,,-99.99,473.000000,,2013-06-15 00:53:00,
2013-06-14 15:01:00,76.0,69.0,30.02,SE,146,2.0,-999.0,80,-99.99,,,-99.99,969.000000,,2013-06-15 01:01:00,
2013-06-14 15:11:00,76.0,69.0,30.02,SE,146,2.0,-999.0,80,-99.99,,,-99.99,969.000000,,2013-06-15 01:11:00,
2013-06-14 15:22:00,76.0,69.0,30.02,South,179,2.0,-999.0,79,-99.99,,,-99.99,285.000000,,2013-06-15 01:22:00,
2013-06-14 15:32:00,76.0,69.0,30.02,South,179,2.0,-999.0,79,-99.99,,,-99.99,285.000000,,2013-06-15 01:32:00,
2013-06-14 15:42:00,76.0,68.0,30.02,SSE,165,3.0,-999.0,77,-99.99,,,-99.99,257.000000,,2013-06-15 01:42:00,
2013-06-14 15:54:00,76.0,68.0,30.02,SSE,165,3.0,-999.0,77,-99.99,,,-99.99,257.000000,,2013-06-15 01:54:00,
2013-06-14 16:02:00,76.0,69.0,30.02,SW,219,4.0,-999.0,80,-99.99,,,-99.99,169.000000,,2013-06-15 02:02:00,
2013-06-14 16:11:00,75.0,69.0,30.01,South,190,5.0,-999.0,83,-99.99,,,-99.99,295.000000,,2013-06-15 02:11:00,
2013-06-14 16:22:00,75.0,69.0,30.01,South,190,5.0,-999.0,83,-99.99,,,-99.99,295.000000,,2013-06-15 02:22:00,
2013-06-14 16:33:00,76.0,70.0,30.01,SSW,208,4.0,-999.0,82,-99.99,,,-99.99,285.000000,,2013-06-15 02:33:00,
2013-06-14 16:42:00,75.0,69.0,30.01,SW,234,3.0,-999.0,83,-99.99,,,-99.99,181.000000,,2013-06-15 02:42:00,
2013-06-14 16:53:00,75.0,70.0,30.00,South,191,4.0,-999.0,85,-99.99,,,-99.99,570.000000,,2013-06-15 02:53:00,
2013-06-14 17:01:00,76.0,70.0,30.00,SSW,207,4.0,-999.0,83,-99.99,,,-99.99,589.000000,,2013-06-15 03:01:00,
2013-06-14 17:11:00,76.0,70.0,30.00,SSW,207,4.0,-999.0,83,-99.99,,,-99.99,589.000000,,2013-06-15 03:11:00,
2013-06-14 17:23:00,76.0,70.0,30.00,SSW,198,3.0,-999.0,81,-99.99,,,-99.99,555.000000,,2013-06-15 03:23:00,
2013-06-14 17:32:00,76.0,70.0,30.00,SSW,198,3.0,-999.0,81,-99.99,,,-99.99,555.000000,,2013-06-15 03:32:00,
2013-06-14 17:43:00,76.0,70.0,30.00,South,187,4.0,-999.0,82,-99.99,,,-99.99,478.000000,,2013-06-15 03:43:00,
2013-06-14 17:52:00,76.0,70.0,30.01,SSW,205,3.0,-999.0,81,-99.99,,,-99.99,366.000000,,2013-06-15 03:52:00,
2013-06-14 18:01:00,76.0,70.0,30.00,South,187,3.0,-999.0,83,-99.99,,,-99.99,209.000000,,2013-06-15 04:01:00,
2013-06-14 18:11:00,76.0,70.0,30.00,South,187,3.0,-999.0,83,-99.99,,,-99.99,209.000000,,2013-06-15 04:11:00,
2013-06-14 18:22:00,75.0,70.0,30.01,SSW,194,3.0,-999.0,85,-99.99,,,-99.99,93.000000,,2013-06-15 04:22:00,
2013-06-14 18:33:00,74.0,70.0,30.01,SW,235,3.0,-999.0,86,-99.99,,,-99.99,88.000000,,2013-06-15 04:33:00,
2013-06-14 18:43:00,74.0,70.0,30.01,SW,235,3.0,-999.0,86,-99.99,,,-99.99,88.000000,,2013-06-15 04:43:00,
2013-06-14 18:54:00,74.0,70.0,30.02,South,184,1.0,-999.0,86,-99.99,,,-99.99,74.000000,,2013-06-15 04:54:00,
2013-06-14 19:02:00,74.0,70.0,30.02,South,184,1.0,-999.0,86,-99.99,,,-99.99,74.000000,,2013-06-15 05:02:00,
2013-06-14 19:11:00,74.0,68.0,30.01,SSW,206,1.0,-999.0,83,-99.99,,,-99.99,42.000000,,2013-06-15 05:11:00,
2013-06-14 19:22:00,73.0,68.0,30.02,SW,230,1.0,-999.0,85,-99.99,,,-99.99,9.000000,,2013-06-15 05:22:00,
2013-06-14 19:33:00,73.0,68.0,30.02,SW,230,1.0,-999.0,85,-99.99,,,-99.99,9.000000,,2013-06-15 05:33:00,
2013-06-14 19:42:00,73.0,69.0,30.02,WSW,238,0.0,-999.0,87,-99.99,,,-99.99,0.000000,,2013-06-15 05:42:00,
2013-06-14 19:52:00,73.0,70.0,30.03,SW,227,0.0,-999.0,89,-99.99,,,-99.99,0.000000,,2013-06-15 05:52:00,
2013-06-14 20:01:00,72.0,69.0,30.03,SW,227,0.0,-999.0,90,-99.99,,,-99.99,0.000000,,2013-06-15 06:01:00,
2013-06-14 20:11:00,72.0,69.0,30.03,SW,227,0.0,-999.0,90,-99.99,,,-99.99,0.000000,,2013-06-15 06:11:00,
2013-06-14 20:24:00,72.0,69.0,30.03,SW,227,0.0,-999.0,91,-99.99,,,-99.99,0.000000,,2013-06-15 06:24:00,
2013-06-14 20:33:00,71.0,68.0,30.03,SW,227,0.0,-999.0,91,-99.99,,,-99.99,0.000000,,2013-06-15 06:33:00,
2013-06-14 20:43:00,71.0,68.0,30.03,SW,227,0.0,-999.0,91,-99.99,,,-99.99,0.000000,,2013-06-15 06:43:00,
2013-06-14 20:53:00,71.0,69.0,30.04,SW,227,0.0,-999.0,92,-99.99,,,-99.99,0.000000,,2013-06-15 06:53:00,
2013-06-14 21:01:00,71.0,69.0,30.04,SW,227,0.0,-999.0,92,-99.99,,,-99.99,0.000000,,2013-06-15 07:01:00,
2013-06-14 21:11:00,70.0,67.0,30.05,ENE,74,0.0,-999.0,89,-99.99,,,-99.99,0.000000,,2013-06-15 07:11:00,
2013-06-14 21:23:00,69.0,66.0,30.05,ENE,74,0.0,-999.0,89,-99.99,,,-99.99,0.000000,,2013-06-15 07:23:00,
2013-06-14 21:32:00,69.0,66.0,30.05,ENE,74,0.0,-999.0,89,-99.99,,,-99.99,0.000000,,2013-06-15 07:32:00,
2013-06-14 21:43:00,69.0,66.0,30.04,ENE,57,1.0,-999.0,90,-99.99,,,-99.99,0.000000,,2013-06-15 07:43:00,
2013-06-14 21:53:00,68.0,65.0,30.05,ENE,57,0.0,-999.0,90,-99.99,,,-99.99,0.000000,,2013-06-15 07:53:00,
2013-06-14 22:02:00,67.0,64.0,30.05,ENE,78,0.0,-999.0,90,-99.99,,,-99.99,0.000000,,2013-06-15 08:02:00,
2013-06-14 22:11:00,67.0,64.0,30.05,ENE,78,0.0,-999.0,90,-99.99,,,-99.99,0.000000,,2013-06-15 08:11:00,
2013-06-14 22:22:00,67.0,64.0,30.04,ENE,78,1.0,-999.0,91,-99.99,,,-99.99,0.000000,,2013-06-15 08:22:00,
2013-06-14 22:33:00,67.0,64.0,30.04,ENE,78,1.0,-999.0,91,-99.99,,,-99.99,0.000000,,2013-06-15 08:33:00,
2013-06-14 22:42:00,68.0,65.0,30.04,East,96,1.0,-999.0,91,-99.99,,,-99.99,0.000000,,2013-06-15 08:42:00,
2013-06-14 22:53:00,68.0,66.0,30.04,East,91,1.0,-999.0,92,-99.99,,,-99.99,0.000000,,2013-06-15 08:53:00,
2013-06-14 23:02:00,68.0,65.0,30.05,ENE,78,1.0,-999.0,91,-99.99,,,-99.99,0.000000,,2013-06-15 09:02:00,
2013-06-14 23:12:00,68.0,65.0,30.05,ENE,78,1.0,-999.0,91,-99.99,,,-99.99,0.000000,,2013-06-15 09:12:00,
2013-06-14 23:22:00,68.0,65.0,30.04,East,94,1.0,-999.0,90,-99.99,,,-99.99,0.000000,,2013-06-15 09:22:00,
2013-06-14 23:32:00,68.0,65.0,30.04,East,94,1.0,-999.0,90,-99.99,,,-99.99,0.000000,,2013-06-15 09:32:00,
2013-06-14 23:43:00,68.0,65.0,30.04,East,100,1.0,-999.0,90,-99.99,,,-99.99,0.000000,,2013-06-15 09:43:00,
2013-06-14 23:52:00,69.0,66.0,30.04,ESE,117,1.0,-999.0,89,-99.99,,,-99.99,0.000000,,2013-06-15 09:52:00,